Key West, FL

7:27 AM EST on February 24, 2018 (GMT -0500)
Key West International

Weather History for KEYW - March, 2014

Change the Weather History Date:

Friday, March 28, 2014

  Actual Average Record
Temperature  
Mean Temperature 78 °F 74 °F  
Max Temperature 81 °F 79 °F 88 °F (1994)
Min Temperature 74 °F 69 °F 58 °F (2013)
Degree Days  
Heating Degree Days 0 0  
Month to date heating degree days 0 0  
Since 1 July heating degree days 22 66  
Cooling Degree Days 13 9  
Month to date cooling degree days 250 234  
Year to date cooling degree days 676 582  
Growing Degree Days 27 (Base 50)    
Moisture  
Dew Point 69 °F    
Average Humidity 78    
Maximum Humidity 87    
Minimum Humidity 68    
Precipitation  
Precipitation 0.00 in 0.06 in 1.10 in (2000)
Month to date precipitation 3.72 1.85  
Year to date precipitation 11.32 5.38  
Snow  
Snow 0.00 in - - ()
Month to date snowfall 0.0  
Since 1 July snowfall 0.0  
Snow Depth 0.00 in    
Sea Level Pressure  
Sea Level Pressure 30.08 in    
Wind  
Wind Speed 16 mph (ESE)    
Max Wind Speed 23 mph    
Max Gust Speed 28 mph    
Visibility 10 miles    
Events      
T = Trace of Precipitation, MM = Missing Value Source: NWS Daily Summary

Daily Weather History Graph

Daily Weather History Graph

Search for Another Location

Airport or City:

Trip Planner

Search our weather history database for the weather conditions in past years. The results will help you decide how hot, cold, wet, or windy it might be!

Date:

Astronomy

Mar. 28, 2014 Rise Set
Actual Time 7:22 AM EDT 7:41 PM EDT
Civil Twilight 7:00 AM EDT 8:04 PM EDT
Nautical Twilight 6:33 AM EDT 8:31 PM EDT
Astronomical Twilight 6:06 AM EDT 8:57 PM EDT
Moon 5:38 AM EDT (3/28) 5:47 PM EDT (3/28)
Length of Visible Light 13h 04m
Length of Day
12h 18m
Waning Crescent, 6% of the Moon is Illuminated
Mar 28
Waning Crescent
Mar 30
New
Apr 7
First Quarter
Apr 15
Full
Apr 22
Last Quarter

Hourly Weather History & Observations

Time (EDT) Temp. Heat Index Dew Point Humidity Pressure Visibility Wind Dir Wind Speed Gust Speed Precip Events Conditions
12:53 AM 73.9 °F - 63.0 °F 68% 30.17 in 10.0 mi East 16.1 mph - N/A   Clear
1:53 AM 75.0 °F - 64.0 °F 69% 30.14 in 10.0 mi ESE 20.7 mph - N/A   Clear
2:53 AM 73.9 °F - 64.9 °F 73% 30.12 in 10.0 mi ESE 20.7 mph 26.5 mph N/A   Clear
3:53 AM 73.9 °F - 64.9 °F 73% 30.11 in 10.0 mi SE 15.0 mph - N/A   Clear
4:53 AM 73.9 °F - 66.0 °F 76% 30.08 in 10.0 mi SE 17.3 mph - N/A   Partly Cloudy
5:53 AM 73.9 °F - 66.0 °F 76% 30.07 in 10.0 mi SE 16.1 mph - N/A   Clear
6:53 AM 75.0 °F - 66.9 °F 76% 30.09 in 10.0 mi SE 18.4 mph - N/A   Clear
7:53 AM 75.0 °F - 68.0 °F 79% 30.09 in 10.0 mi ESE 16.1 mph - N/A   Overcast
8:53 AM 75.9 °F - 69.1 °F 79% 30.11 in 10.0 mi SE 16.1 mph - N/A   Mostly Cloudy
9:53 AM 78.1 °F - 70.0 °F 76% 30.12 in 10.0 mi SE 17.3 mph - N/A   Mostly Cloudy
10:53 AM 79.0 °F - 70.0 °F 74% 30.12 in 10.0 mi ESE 16.1 mph 25.3 mph N/A   Scattered Clouds
11:53 AM 80.1 °F 83.2 °F 70.0 °F 71% 30.12 in 10.0 mi ESE 18.4 mph - N/A   Clear
12:53 PM 80.1 °F 83.6 °F 71.1 °F 74% 30.11 in 10.0 mi ESE 18.4 mph - N/A   Clear
1:53 PM 80.1 °F 83.8 °F 72.0 °F 76% 30.08 in 10.0 mi ESE 17.3 mph - N/A   Clear
2:53 PM 80.1 °F 83.8 °F 72.0 °F 76% 30.06 in 10.0 mi ESE 16.1 mph - N/A   Partly Cloudy
3:53 PM 79.0 °F - 71.1 °F 77% 30.03 in 10.0 mi ESE 16.1 mph - N/A   Clear
4:53 PM 80.1 °F 83.8 °F 72.0 °F 76% 30.02 in 10.0 mi ESE 17.3 mph - N/A   Clear
5:53 PM 79.0 °F - 71.1 °F 77% 30.02 in 10.0 mi East 15.0 mph - N/A   Clear
6:53 PM 78.1 °F - 71.1 °F 79% 30.03 in 10.0 mi East 15.0 mph - N/A   Clear
7:53 PM 75.9 °F - 71.1 °F 85% 30.05 in 10.0 mi East 13.8 mph - N/A   Clear
8:53 PM 75.9 °F - 72.0 °F 87% 30.04 in 10.0 mi ESE 16.1 mph - N/A   Partly Cloudy
9:53 PM 77.0 °F - 72.0 °F 84% 30.06 in 10.0 mi ESE 15.0 mph - N/A   Mostly Cloudy
10:53 PM 77.0 °F - 72.0 °F 84% 30.08 in 10.0 mi ESE 13.8 mph - N/A   Partly Cloudy
11:53 PM 77.0 °F - 72.0 °F 84% 30.09 in 10.0 mi ESE 11.5 mph - N/A   Mostly Cloudy